This is the latest recevied weather packets stored in our database for station/object DG6YGE-6. If no packets are shown the sender has not sent any weather packets the latest 10 day(s).
| Time | Temp. | Humidity | Pressure | Rain* | Wind** | Luminosity | Snow |
|---|---|---|---|---|---|---|---|
| 1788161953 | 18.89° C | 80% | 1009 hPa | 0 mm | - | 143 W/m² | - |
| 1788161353 | 19.44° C | 80% | 1009.1 hPa | 0 mm | - | 179 W/m² | - |
| 1788160753 | 18.89° C | 82% | 1009.1 hPa | 0 mm | - | 329 W/m² | - |
| 1788160153 | 18.33° C | 84% | 1008.9 hPa | 0 mm | - | 285 W/m² | - |
| 1788159553 | 17.78° C | 85% | 1008.9 hPa | 0 mm | - | 227 W/m² | - |
| 1788158953 | 17.78° C | 86% | 1008.9 hPa | 0 mm | - | 261 W/m² | - |
| 1788158353 | 17.22° C | 87% | 1008.8 hPa | 0 mm | - | 208 W/m² | - |
| 1788157753 | 17.22° C | 88% | 1008.8 hPa | 0 mm | - | 195 W/m² | - |
| 1788157156 | 16.67° C | 88% | 1008.8 hPa | 0 mm | - | 151 W/m² | - |
| 1788156553 | 16.11° C | 90% | 1008.7 hPa | 0 mm | - | 128 W/m² | - |
| 1788155953 | 16.11° C | 91% | 1008.7 hPa | 0 mm | - | 46 W/m² | - |
| 1788155353 | 15.56° C | 92% | 1008.6 hPa | 0 mm | - | 52 W/m² | - |
| 1788154753 | 15° C | 92% | 1008.6 hPa | 0 mm | - | 67 W/m² | - |
| 1788154153 | 15° C | 92% | 1008.5 hPa | 0 mm | - | 34 W/m² | - |
| 1788153552 | 15° C | 92% | 1008.5 hPa | 0 mm | - | 19 W/m² | - |
| 1788152953 | 15° C | 92% | 1008.5 hPa | 0 mm | - | 21 W/m² | - |
| 1788152353 | 15° C | 92% | 1008.5 hPa | 0 mm | - | 19 W/m² | - |
| 1788151753 | 15° C | 92% | 1008.5 hPa | 0 mm | - | 0 W/m² | - |
| 1788151153 | 15° C | 92% | 1008.4 hPa | 0 mm | - | 0 W/m² | - |
| 1788150553 | 15° C | 92% | 1008.5 hPa | 0 mm | - | 0 W/m² | - |
| 1788149953 | 15° C | 92% | 1008.3 hPa | 0 mm | - | 0 W/m² | - |
| 1788149353 | 15° C | 92% | 1008.3 hPa | 0 mm | - | 0 W/m² | - |
| 1788148753 | 15° C | 92% | 1008.2 hPa | 0 mm | - | 0 W/m² | - |
| 1788148153 | 15° C | 92% | 1008.4 hPa | 0 mm | - | 0 W/m² | - |
| 1788147553 | 15° C | 92% | 1008.5 hPa | 0 mm | - | 0 W/m² | - |
* Rain latest hour (hover to see other rain measurements)
** Current wind speed in m/s (hover to see current wind gust speed)